Total_Precipitation_Accumulation
0.59 0.56 0.56 0.54 0.52 0.52 0.61 0.72 1.11 1.43 1.87 2.22 2.12 2.25 2.54 2.57 2.41 2.25 2.28 2.28 2.20 2.23 2.16 2.14 2.10 1.93 1.80 1.67 1.56 1.49 1.47 1.43 1.49 1.58 1.56 1.50 1.46 1.41 1.36 1.27 1.16 1.15 1.14 1.07
0.55 0.49 0.53 0.58 0.62 0.58 0.61 0.76 1.11 1.48 1.99 2.09 2.08 2.18 2.32 2.47 2.40 2.28 2.29 2.35 2.39 2.49 2.43 2.36 2.31 2.12 1.96 1.82 1.61 1.48 1.46 1.44 1.46 1.52 1.51 1.45 1.43 1.37 1.31 1.25 1.23 1.19 1.13 1.08
0.70 0.50 0.76 1.12 0.95 0.84 0.84 0.94 1.24 1.63 1.84 1.79 1.89 2.12 2.25 2.35 2.43 2.40 2.49 2.63 2.69 2.63 2.59 2.49 2.40 2.39 2.28 2.03 1.80 1.70 1.60 1.49 1.47 1.44 1.40 1.36 1.25 1.22 1.27 1.27 1.24 1.17 1.11 1.10
0.86 0.93 1.51 1.43 0.94 0.89 1.03 1.20 1.29 1.40 1.45 1.62 1.83 2.00 2.08 2.31 2.53 2.56 2.55 2.51 2.59 2.55 2.55 2.47 2.35 2.28 2.22 2.08 1.92 1.71 1.58 1.46 1.37 1.37 1.34 1.34 1.30 1.27 1.28 1.29 1.23 1.24 1.20 1.16
1.07 1.41 1.55 1.45 1.02 1.03 1.26 1.64 1.46 1.47 1.45 1.56 1.66 1.84 2.21 2.29 2.39 2.59 2.46 2.36 2.44 2.53 2.55 2.50 2.37 2.17 2.05 1.97 1.88 1.78 1.59 1.37 1.25 1.25 1.23 1.24 1.27 1.27 1.25 1.24 1.19 1.17 1.15 1.15
1.31 1.67 1.91 1.73 1.03 0.86 1.30 2.31 1.75 1.62 1.63 1.59 1.71 2.22 2.36 2.10 2.03 2.14 2.21 2.31 2.43 2.54 2.58 2.52 2.41 2.10 1.95 1.83 1.68 1.52 1.32 1.20 1.16 1.19 1.13 1.11 1.18 1.22 1.22 1.23 1.18 1.14 1.12 1.14
1.45 1.90 2.00 1.26 0.80 0.93 1.88 2.38 1.82 1.71 1.66 1.69 1.91 2.10 1.90 1.74 1.81 1.98 2.14 2.28 2.38 2.41 2.43 2.35 2.27 2.02 1.91 1.73 1.57 1.30 1.11 1.05 1.11 1.11 1.04 1.01 1.07 1.12 1.18 1.14 1.14 1.14 1.06 1.05
1.66 2.10 2.23 1.10 0.88 1.31 1.68 1.41 1.33 1.36 1.35 1.39 1.49 1.54 1.57 1.62 1.69 1.76 1.88 2.08 2.19 2.24 2.22 2.11 1.99 1.84 1.73 1.59 1.34 1.14 1.02 0.99 1.06 1.11 0.91 0.82 0.95 0.98 1.02 1.15 1.11 1.09 1.08 0.99
1.89 2.23 1.84 1.19 1.12 1.12 1.18 1.19 1.13 1.18 1.16 1.18 1.26 1.32 1.44 1.59 1.69 1.71 1.68 1.82 1.90 1.82 1.72 1.73 1.67 1.56 1.46 1.32 1.14 1.02 0.99 1.03 1.04 1.03 0.95 0.89 0.95 0.96 0.99 1.07 1.06 0.98 0.98 0.92
1.66 1.75 1.45 1.15 1.05 1.03 0.92 0.92 0.97 1.09 1.09 1.05 1.05 1.03 1.13 1.27 1.41 1.49 1.48 1.48 1.54 1.54 1.48 1.45 1.39 1.30 1.19 1.06 1.02 1.01 1.02 1.04 1.06 1.03 0.94 0.89 0.93 0.88 0.89 0.89 0.91 0.87 0.85 0.84
1.75 1.71 1.48 1.27 1.09 0.99 0.93 0.90 0.95 1.00 0.94 0.88 0.84 0.84 0.87 1.01 1.10 1.16 1.20 1.19 1.22 1.31 1.33 1.21 1.13 1.09 1.04 0.95 0.94 1.03 1.05 1.01 1.01 0.92 0.88 0.89 0.85 0.74 0.70 0.66 0.68 0.76 0.77 0.76
1.94 1.64 1.55 1.39 1.06 0.87 0.87 0.86 0.84 0.81 0.76 0.76 0.73 0.72 0.76 0.92 1.02 1.05 1.04 1.06 1.13 1.19 1.16 1.10 1.03 0.97 0.92 0.84 0.85 0.97 1.01 0.97 0.89 0.83 0.79 0.76 0.79 0.72 0.64 0.60 0.59 0.58 0.61 0.58
1.30 1.13 1.09 1.02 0.90 0.87 0.76 0.70 0.74 0.70 0.62 0.61 0.61 0.61 0.71 0.85 0.88 0.92 0.96 1.00 1.11 1.11 1.04 0.95 0.89 0.89 0.87 0.83 0.78 0.82 0.87 0.84 0.79 0.75 0.74 0.71 0.73 0.76 0.73 0.58 0.51 0.50 0.53 0.53
0.94 0.98 1.04 0.89 0.75 0.69 0.61 0.55 0.57 0.56 0.54 0.52 0.52 0.52 0.58 0.65 0.70 0.79 0.89 0.95 0.99 0.94 0.96 0.98 0.88 0.81 0.80 0.76 0.71 0.68 0.72 0.68 0.66 0.70 0.71 0.68 0.64 0.62 0.64 0.64 0.61 0.54 0.49 0.47
0.80 0.80 0.87 0.74 0.59 0.57 0.55 0.48 0.53 0.58 0.57 0.55 0.49 0.45 0.45 0.56 0.65 0.72 0.72 0.78 0.83 0.81 0.80 0.84 0.89 0.83 0.76 0.71 0.68 0.63 0.64 0.65 0.59 0.57 0.61 0.61 0.57 0.58 0.57 0.60 0.60 0.58 0.52 0.44
0.70 0.64 0.61 0.59 0.52 0.49 0.51 0.53 0.56 0.58 0.59 0.59 0.55 0.51 0.49 0.56 0.65 0.70 0.67 0.68 0.72 0.69 0.64 0.68 0.76 0.72 0.67 0.62 0.60 0.60 0.58 0.60 0.56 0.52 0.53 0.57 0.54 0.54 0.55 0.54 0.54 0.52 0.50 0.45
0.73 0.73 0.66 0.62 0.56 0.51 0.51 0.55 0.52 0.50 0.53 0.61 0.58 0.50 0.48 0.55 0.66 0.69 0.70 0.63 0.58 0.54 0.50 0.53 0.61 0.62 0.62 0.57 0.52 0.48 0.49 0.52 0.55 0.51 0.46 0.46 0.45 0.45 0.45 0.48 0.51 0.53 0.49 0.47
0.62 0.62 0.60 0.62 0.57 0.54 0.53 0.50 0.47 0.46 0.48 0.54 0.55 0.54 0.55 0.60 0.65 0.61 0.60 0.52 0.49 0.50 0.45 0.41 0.47 0.56 0.59 0.58 0.51 0.44 0.42 0.44 0.46 0.46 0.43 0.39 0.38 0.40 0.43 0.42 0.42 0.46 0.50 0.54
0.48 0.48 0.51 0.56 0.56 0.58 0.57 0.51 0.44 0.39 0.41 0.46 0.53 0.59 0.63 0.62 0.60 0.55 0.52 0.53 0.55 0.58 0.51 0.43 0.47 0.50 0.51 0.49 0.50 0.48 0.46 0.45 0.45 0.46 0.44 0.41 0.37 0.41 0.44 0.42 0.41 0.42 0.44 0.50
0.46 0.48 0.51 0.54 0.50 0.49 0.49 0.44 0.42 0.40 0.42 0.47 0.49 0.49 0.58 0.58 0.55 0.54 0.54 0.56 0.52 0.50 0.47 0.44 0.41 0.45 0.48 0.47 0.49 0.46 0.47 0.45 0.45 0.46 0.48 0.46 0.43 0.43 0.42 0.43 0.44 0.46 0.49 0.53
0.49 0.50 0.51 0.51 0.48 0.42 0.40 0.40 0.42 0.44 0.47 0.49 0.44 0.42 0.48 0.51 0.47 0.51 0.56 0.55 0.47 0.45 0.51 0.50 0.42 0.38 0.41 0.45 0.51 0.49 0.49 0.48 0.46 0.44 0.45 0.46 0.44 0.45 0.44 0.44 0.45 0.45 0.48 0.51
0.58 0.57 0.51 0.53 0.53 0.46 0.41 0.42 0.42 0.41 0.42 0.44 0.41 0.42 0.46 0.48 0.48 0.52 0.55 0.51 0.41 0.40 0.42 0.45 0.42 0.40 0.40 0.42 0.41 0.43 0.45 0.46 0.45 0.42 0.41 0.44 0.47 0.49 0.46 0.47 0.47 0.45 0.43 0.45
0.66 0.64 0.56 0.61 0.58 0.54 0.50 0.42 0.37 0.39 0.43 0.43 0.41 0.43 0.45 0.48 0.47 0.51 0.51 0.44 0.39 0.41 0.38 0.39 0.41 0.39 0.35 0.32 0.33 0.36 0.37 0.41 0.43 0.42 0.39 0.39 0.42 0.44 0.41 0.42 0.45 0.44 0.40 0.41
0.73 0.73 0.63 0.60 0.55 0.60 0.58 0.45 0.41 0.44 0.50 0.47 0.43 0.42 0.41 0.42 0.42 0.42 0.42 0.46 0.45 0.43 0.37 0.38 0.39 0.36 0.34 0.28 0.30 0.34 0.35 0.36 0.37 0.37 0.36 0.35 0.37 0.37 0.37 0.37 0.40 0.40 0.38 0.38
0.77 0.78 0.70 0.67 0.68 0.68 0.64 0.58 0.53 0.49 0.50 0.47 0.43 0.42 0.41 0.42 0.43 0.43 0.41 0.39 0.41 0.39 0.34 0.36 0.38 0.37 0.32 0.30 0.33 0.33 0.32 0.35 0.37 0.34 0.32 0.32 0.33 0.33 0.35 0.36 0.35 0.36 0.37 0.36
0.82 0.83 0.77 0.73 0.71 0.69 0.66 0.67 0.69 0.64 0.59 0.55 0.48 0.44 0.41 0.40 0.40 0.41 0.38 0.35 0.35 0.34 0.32 0.34 0.35 0.37 0.32 0.31 0.34 0.35 0.32 0.33 0.35 0.35 0.33 0.34 0.36 0.36 0.34 0.33 0.33 0.34 0.35 0.36
0.80 0.79 0.76 0.67 0.61 0.62 0.71 0.75 0.74 0.72 0.68 0.63 0.57 0.49 0.42 0.41 0.37 0.38 0.39 0.37 0.36 0.34 0.33 0.36 0.37 0.37 0.35 0.34 0.36 0.38 0.33 0.31 0.33 0.32 0.32 0.33 0.36 0.37 0.36 0.36 0.34 0.33 0.33 0.33